Regional Weather Roundup
Issued by NWS Sioux Falls, SD

Home | Current Version | Previous Version | Text Only | Print | Product List | Glossary On
Versions: 1 2 3 4 5 6 7 8 9 10 11 12 13 14 15 16 17 18 19 20 21 22 23 24 25 26 27 28 29 30 31 32 33 34 35 36 37 38 39 40 41 42 43 44 45 46 47 48 49 50
000
ASUS43 KFSD 041902
RWRFSD

WEATHER ROUNDUP FOR SE SOUTH DAKOTA/SW MINNESOTA/NW IOWA
NATIONAL WEATHER SERVICE SIOUX FALLS SD
100 PM CST SUN DEC 04 2016

NOTE: "FAIR" INDICATES FEW OR NO CLOUDS BELOW 12,000 FEET WITH NO
SIGNIFICANT WEATHER AND OR OBSTRUCTIONS TO VISIBILITY.


SDZ038>040-050-052>070-042000-
SOUTHEAST SOUTH DAKOTA

CITY           SKY/WX    TMP DP  RH WIND       PRES   REMARKS
CHAMBERLAIN    SUNNY     43  31  61 W10       29.84F
HURON          SUNNY     42  31  64 W13       29.81F
MADISON        FAIR      37  37 100 W13G21    29.80F
MITCHELL       SUNNY     43  32  65 W13       29.84F
SIOUX FALLS    SUNNY     42  33  70 W12       29.83F
WINNER         FAIR      47  25  42 W15       29.84F
YANKTON        SUNNY     46  28  49 W14       29.85F
$$

MNZ071-072-080-081-089-090-097-098-042000-
SOUTHWEST MINNESOTA

CITY           SKY/WX    TMP DP  RH WIND       PRES   REMARKS
FAIRMONT       CLOUDY    38  34  85 SW12      29.83F
JACKSON        PTSUNNY   37  32  81 W9        29.82F
LUVERNE        SUNNY     41  32  70 W14       29.83F
MARSHALL       MOSUNNY   41  31  67 W20       29.78F
MONTEVIDEO     MOSUNNY   39  37  93 NW12      29.77F
PIPESTONE      SUNNY     39  34  81 W13       29.79F
REDWOOD FALLS  PTSUNNY   40  32  73 SW12      29.78F
TRACY          SUNNY     41  34  75 W13       29.78F
WINDOM         SUNNY     41  34  75 SW14      29.79F
WORTHINGTON    SUNNY     40  33  76 W21       29.80F
$$

IAZ001>003-012>014-020>022-031-032-NEZ013-014-SDZ071-042000-
NORTHWEST IOWA

CITY           SKY/WX    TMP DP  RH WIND       PRES   REMARKS
CHEROKEE       SUNNY     42  37  85 SW8       29.86F
DENISON        PTSUNNY   37  36  93 SW15      29.88F
ESTHERVILLE    PTSUNNY   38  36  92 SW14      29.82F
LE MARS        SUNNY     45  34  65 W12       29.87F
ORANGE CITY    SUNNY     43  36  75 W13       29.84F
SHELDON        SUNNY     43  37  81 W15       29.82F
SIOUX CITY     SUNNY     48  36  63 SW5       29.88F
SPENCER        MOSUNNY   42  35  76 W13       29.84F
STORM LAKE     MOSUNNY   34  32  93 SW13G18   29.86F WCI  25
$$

ABBREVIATIONS USED IN REMARKS
   TC - TEMPERATURE IN CELSIUS
  WCI - WIND CHILL INDEX
   HX - HEAT INDEX
  VSB - VISIBILITY





USA.gov is the U.S. government's official web portal to all federal, state and local government web resources and services.